Weather History for Blythe, CA

Change the Weather History Date:

Friday, August 30, 2013

  Actual Average Record
Temperature  
Mean Temperature 89 °F -  
Max Temperature 98 °F 103 °F 115 °F (1984)
Min Temperature 82 °F 77 °F 64 °F (2010)
Cooling Degree Days 24    
Growing Degree Days 39 (Base 50)    
Moisture  
Dew Point 73 °F    
Average Humidity 60    
Maximum Humidity 85    
Minimum Humidity 43    
Precipitation  
Precipitation 0.00 in - - ()
Sea Level Pressure  
Sea Level Pressure 29.92 in    
Wind  
Wind Speed 4 mph (South)    
Max Wind Speed 13 mph    
Max Gust Speed -    
Visibility 10 miles    
Events      
Averages and records for this station are not official NWS values.
T = Trace of Precipitation, MM = Missing Value Source: NWS Daily Summary

Daily Weather History Graph

Daily Weather History Graph

Search for Another Location

Airport:

Trip Planner

Search our weather history database for the weather conditions in past years. The results will help you decide how hot, cold, wet, or windy it might be!

Date:

Astronomy

Aug. 30, 2013 Rise Set
Actual Time 6:11 AM PDT 7:06 PM PDT
Civil Twilight 5:46 AM PDT 7:31 PM PDT
Nautical Twilight 5:16 AM PDT 8:01 PM PDT
Astronomical Twilight 4:44 AM PDT 8:32 PM PDT
Moon 1:02 AM PDT (8/30) 3:16 PM PDT (8/30)
Length of Visible Light 13h 45m
Length of Day
12h 54m
Waning Crescent, 28% of the Moon is Illuminated
Aug 30
Waning Crescent
Sep 5
New
Sep 12
First Quarter
Sep 19
Full
Sep 26
Last Quarter

Hourly Weather History & Observations

Time (PDT) Temp. Heat Index Dew Point Humidity Pressure Visibility Wind Dir Wind Speed Gust Speed Precip Events Conditions
12:52 AM 82.9 °F 90.2 °F 75.0 °F 77% 29.96 in 10.0 mi SE 4.6 mph - N/A   Clear
1:52 AM 82.9 °F 90.2 °F 75.0 °F 77% 29.95 in 10.0 mi SE 4.6 mph - N/A   Clear
2:52 AM 82.0 °F 88.6 °F 75.0 °F 79% 29.94 in 10.0 mi SSE 4.6 mph - N/A   Clear
3:52 AM 82.9 °F 90.2 °F 75.0 °F 77% 29.95 in 10.0 mi South 3.5 mph - N/A   Clear
4:52 AM 82.9 °F 90.2 °F 75.0 °F 77% 29.95 in 10.0 mi Calm Calm - N/A   Clear
5:52 AM 82.0 °F 90.2 °F 77.0 °F 85% 29.95 in 10.0 mi Calm Calm - N/A   Clear
6:52 AM 82.0 °F 90.2 °F 77.0 °F 85% 29.97 in 10.0 mi Calm Calm - N/A   Clear
7:52 AM 84.0 °F 91.9 °F 75.0 °F 74% 29.98 in 10.0 mi Calm Calm - N/A   Unknown
8:52 AM 84.9 °F 92.1 °F 73.9 °F 69% 29.99 in 10.0 mi Calm Calm - N/A   Clear
9:52 AM 88.0 °F 95.6 °F 73.0 °F 61% 29.99 in 10.0 mi Calm Calm - N/A   Unknown
10:52 AM 90.0 °F 96.9 °F 72.0 °F 55% 29.99 in 10.0 mi Variable 4.6 mph - N/A   Clear
11:52 AM 91.0 °F 96.6 °F 70.0 °F 50% 29.97 in 10.0 mi Variable 3.5 mph - N/A   Clear
12:52 PM 91.9 °F 97.4 °F 70.0 °F 48% 29.94 in 10.0 mi Variable 4.6 mph - N/A   Clear
1:52 PM 93.0 °F 100.1 °F 71.1 °F 49% 29.92 in 10.0 mi SE 4.6 mph - N/A   Clear
2:52 PM 93.9 °F 100.3 °F 70.0 °F 46% 29.88 in 10.0 mi SSE 6.9 mph - N/A   Clear
3:52 PM 95.0 °F 101.3 °F 70.0 °F 44% 29.87 in 10.0 mi South 10.4 mph - N/A   Clear
4:52 PM 96.1 °F 102.9 °F 70.0 °F 43% 29.86 in 10.0 mi SE 9.2 mph - N/A   Clear
5:52 PM 95.0 °F 102.5 °F 71.1 °F 46% 29.86 in 10.0 mi South 12.7 mph - N/A   Clear
6:52 PM 93.0 °F 99.0 °F 70.0 °F 47% 29.85 in 10.0 mi SSE 11.5 mph - N/A   Clear
7:52 PM 91.0 °F 96.6 °F 70.0 °F 50% 29.86 in 10.0 mi South 10.4 mph - N/A   Clear
8:52 PM 91.0 °F 97.6 °F 71.1 °F 52% 29.88 in 10.0 mi South 6.9 mph - N/A   Clear
9:52 PM 91.0 °F 96.6 °F 70.0 °F 50% 29.88 in 10.0 mi SW 5.8 mph - N/A   Clear
10:52 PM 91.0 °F 98.2 °F 72.0 °F 53% 29.88 in 10.0 mi SW 5.8 mph - N/A   Clear
11:52 PM 90.0 °F 97.9 °F 73.0 °F 57% 29.88 in 10.0 mi SSW 8.1 mph - N/A   Clear